Location: Drocourt
(49.0571°N, 1.7669°E)
Time: 14:08:10
(UTC+00:00)

Vanguard 2 Rocket - Pass Details

Date: 15 April 2024
Orbit: 556 x 3304 km, 32.9° (Epoch: 22 May)

Event Time Altitude Azimuth Distance (km) Brightness Sun altitude
Rises 22:26:45 0° 227° (SW) 6,817 11.2 -27.8°
Reaches altitude 10° 22:31:30 10° 220° (SW) 6,019 10.8 -28.1°
Enters shadow 22:45:31 38° 178° (S) 4,359 9.7 -28.9°
Exits shadow 22:52:21 37° 141° (SE) 4,276 9.7 -29.3°
Drops below altitude 10° 23:04:26 10° 101° (E) 5,537 10.6 -29.8°
Sets 23:08:32 0° 94° (E) 6,246 11.0 -29.9°
